Time,TemperatureF,DewpointF,PressureIn,WindDirection,WindDirectionDegrees,WindSpeedMPH,WindSpeedGustMPH,Humidity,HourlyPrecipIn,Conditions,Clouds,dailyrainin,SoftwareType,DateUTC
2013-09-18 00:01:00,41.3,41.0,25.61,NNW,337,2.1,8.0,100,0.06,,,0.01,Rainwise IP-100,2013-09-18 07:01:00,
2013-09-18 00:06:00,41.2,41.0,25.60,NNW,337,1.6,5.0,100,0.06,,,0.01,Rainwise IP-100,2013-09-18 07:06:00,
2013-09-18 00:11:00,41.1,41.0,25.61,ENE,67,0.0,3.0,100,0.06,,,0.02,Rainwise IP-100,2013-09-18 07:11:00,
2013-09-18 00:16:00,41.1,41.0,25.60,NNE,22,0.0,4.0,100,0.06,,,0.02,Rainwise IP-100,2013-09-18 07:16:00,
2013-09-18 00:21:00,41.1,41.0,25.60,ENE,67,0.0,1.0,100,0.06,,,0.03,Rainwise IP-100,2013-09-18 07:21:00,
2013-09-18 00:26:00,41.0,41.0,25.61,ENE,67,0.0,1.0,100,0.06,,,0.03,Rainwise IP-100,2013-09-18 07:26:00,
2013-09-18 00:31:00,40.9,41.0,25.61,ESE,112,0.0,3.0,100,0.00,,,0.03,Rainwise IP-100,2013-09-18 07:31:00,
2013-09-18 00:36:00,40.9,41.0,25.61,NE,45,0.0,3.0,100,0.00,,,0.03,Rainwise IP-100,2013-09-18 07:36:00,
2013-09-18 00:41:00,40.9,41.0,25.61,NNE,22,0.0,4.0,100,0.00,,,0.03,Rainwise IP-100,2013-09-18 07:41:00,
2013-09-18 00:46:00,40.9,41.0,25.61,ESE,112,0.0,2.0,100,0.00,,,0.03,Rainwise IP-100,2013-09-18 07:46:00,
2013-09-18 00:51:00,40.8,41.0,25.61,East,90,0.0,2.0,100,0.00,,,0.03,Rainwise IP-100,2013-09-18 07:51:00,
2013-09-18 00:56:00,40.8,41.0,25.61,East,90,0.0,1.0,100,0.00,,,0.03,Rainwise IP-100,2013-09-18 07:56:00,
2013-09-18 01:01:00,40.8,41.0,25.61,ENE,67,1.2,2.0,100,0.00,,,0.03,Rainwise IP-100,2013-09-18 08:01:00,
2013-09-18 01:06:00,40.8,41.0,25.61,NNW,337,1.6,2.0,100,0.00,,,0.03,Rainwise IP-100,2013-09-18 08:06:00,
2013-09-18 01:11:00,40.7,41.0,25.61,NNW,337,3.0,3.0,100,0.00,,,0.03,Rainwise IP-100,2013-09-18 08:11:00,
2013-09-18 01:16:00,40.6,41.0,25.61,NNW,337,1.9,3.0,100,0.00,,,0.03,Rainwise IP-100,2013-09-18 08:16:00,
2013-09-18 01:21:00,40.5,41.0,25.61,ESE,112,0.0,2.0,100,0.00,,,0.03,Rainwise IP-100,2013-09-18 08:21:00,
2013-09-18 01:26:00,40.4,40.0,25.61,NNE,22,0.0,3.0,100,0.00,,,0.03,Rainwise IP-100,2013-09-18 08:26:00,
2013-09-18 01:31:00,40.4,40.0,25.61,ESE,112,0.0,4.0,100,0.00,,,0.03,Rainwise IP-100,2013-09-18 08:31:00,
2013-09-18 01:36:00,40.4,40.0,25.61,ENE,67,0.0,2.0,100,0.00,,,0.03,Rainwise IP-100,2013-09-18 08:36:00,
2013-09-18 01:41:00,40.4,40.0,25.61,NE,45,0.0,2.0,100,0.00,,,0.03,Rainwise IP-100,2013-09-18 08:41:00,
2013-09-18 01:46:00,40.4,40.0,25.62,NNW,337,0.0,3.0,100,0.00,,,0.03,Rainwise IP-100,2013-09-18 08:46:00,
2013-09-18 01:51:00,40.4,40.0,25.61,NNE,22,4.0,5.0,100,0.00,,,0.03,Rainwise IP-100,2013-09-18 08:51:00,
2013-09-18 01:56:00,40.3,40.0,25.61,NNW,337,5.1,5.1,100,0.00,,,0.03,Rainwise IP-100,2013-09-18 08:56:00,
2013-09-18 02:01:00,40.2,40.0,25.61,North,360,1.9,7.0,100,0.00,,,0.03,Rainwise IP-100,2013-09-18 09:01:00,
2013-09-18 02:06:00,40.2,40.0,25.62,ESE,112,1.6,3.0,100,0.00,,,0.03,Rainwise IP-100,2013-09-18 09:06:00,
2013-09-18 02:11:00,40.3,40.0,25.61,NNE,22,1.6,2.0,100,0.00,,,0.03,Rainwise IP-100,2013-09-18 09:11:00,
2013-09-18 02:16:00,40.4,40.0,25.61,NNE,22,0.0,2.0,100,0.00,,,0.03,Rainwise IP-100,2013-09-18 09:16:00,
2013-09-18 02:21:00,40.4,40.0,25.61,NNE,22,0.0,1.0,100,0.00,,,0.03,Rainwise IP-100,2013-09-18 09:21:00,
2013-09-18 02:26:00,40.4,40.0,25.62,North,360,0.0,3.0,100,0.00,,,0.03,Rainwise IP-100,2013-09-18 09:26:00,
2013-09-18 02:31:00,40.4,40.0,25.62,SSW,202,0.0,1.0,100,0.00,,,0.03,Rainwise IP-100,2013-09-18 09:31:00,
2013-09-18 02:36:00,40.5,41.0,25.61,SSW,202,0.0,2.0,100,0.00,,,0.03,Rainwise IP-100,2013-09-18 09:36:00,
2013-09-18 02:41:00,40.4,40.0,25.61,East,90,0.0,1.0,100,0.00,,,0.03,Rainwise IP-100,2013-09-18 09:41:00,
2013-09-18 02:46:00,40.3,40.0,25.61,NNE,22,3.3,3.3,100,0.00,,,0.03,Rainwise IP-100,2013-09-18 09:46:00,
2013-09-18 02:51:00,40.2,40.0,25.62,NNW,337,1.2,4.0,100,0.06,,,0.04,Rainwise IP-100,2013-09-18 09:51:00,
2013-09-18 02:56:00,40.2,40.0,25.62,WNW,292,0.0,7.0,100,0.06,,,0.04,Rainwise IP-100,2013-09-18 09:56:00,
2013-09-18 03:01:00,40.3,40.0,25.62,NNW,337,1.4,3.0,100,0.00,,,0.04,Rainwise IP-100,2013-09-18 10:01:00,
2013-09-18 03:06:00,40.3,40.0,25.62,NNW,337,4.4,4.4,100,0.00,,,0.04,Rainwise IP-100,2013-09-18 10:06:00,
2013-09-18 03:11:00,40.3,40.0,25.62,North,360,0.0,4.0,100,0.00,,,0.04,Rainwise IP-100,2013-09-18 10:11:00,
2013-09-18 03:16:00,40.3,40.0,25.62,North,360,2.3,6.0,100,0.00,,,0.04,Rainwise IP-100,2013-09-18 10:16:00,
2013-09-18 03:21:00,40.4,40.0,25.62,NW,315,4.2,5.0,100,0.00,,,0.04,Rainwise IP-100,2013-09-18 10:21:00,
2013-09-18 03:26:00,40.4,40.0,25.62,ESE,112,1.2,5.0,100,0.00,,,0.04,Rainwise IP-100,2013-09-18 10:26:00,
2013-09-18 03:31:00,40.3,40.0,25.62,NNW,337,2.6,3.0,100,0.00,,,0.04,Rainwise IP-100,2013-09-18 10:31:00,
2013-09-18 03:36:00,40.3,40.0,25.62,SSW,202,1.4,3.0,100,0.00,,,0.04,Rainwise IP-100,2013-09-18 10:36:00,
2013-09-18 03:41:00,40.3,40.0,25.62,WNW,292,0.0,2.0,100,0.00,,,0.04,Rainwise IP-100,2013-09-18 10:41:00,
2013-09-18 03:46:00,40.3,40.0,25.62,WNW,292,0.0,1.0,100,0.00,,,0.04,Rainwise IP-100,2013-09-18 10:46:00,
2013-09-18 03:51:00,40.3,40.0,25.62,WNW,292,0.0,0.0,100,0.00,,,0.04,Rainwise IP-100,2013-09-18 10:51:00,
2013-09-18 03:56:00,40.2,40.0,25.62,SE,135,4.4,4.4,100,0.00,,,0.04,Rainwise IP-100,2013-09-18 10:56:00,
2013-09-18 04:01:00,40.2,40.0,25.63,NNW,337,2.6,4.0,100,0.00,,,0.04,Rainwise IP-100,2013-09-18 11:01:00,
2013-09-18 04:06:00,40.2,40.0,25.63,North,360,2.6,5.0,100,0.00,,,0.04,Rainwise IP-100,2013-09-18 11:06:00,
2013-09-18 04:11:00,40.4,40.0,25.63,NE,45,0.0,7.0,100,0.00,,,0.04,Rainwise IP-100,2013-09-18 11:11:00,
2013-09-18 04:16:00,40.6,41.0,25.63,NNE,22,2.8,4.0,100,0.00,,,0.04,Rainwise IP-100,2013-09-18 11:16:00,
2013-09-18 04:21:00,40.6,41.0,25.64,NNE,22,3.7,5.0,100,0.00,,,0.04,Rainwise IP-100,2013-09-18 11:21:00,
2013-09-18 04:26:00,40.5,41.0,25.64,ENE,67,0.0,5.0,100,0.00,,,0.04,Rainwise IP-100,2013-09-18 11:26:00,
2013-09-18 04:31:00,40.5,41.0,25.63,NNE,22,2.6,8.0,100,0.00,,,0.04,Rainwise IP-100,2013-09-18 11:31:00,
2013-09-18 04:36:00,40.6,41.0,25.64,WNW,292,0.0,6.0,99,0.00,,,0.04,Rainwise IP-100,2013-09-18 11:36:00,
2013-09-18 04:41:00,40.7,41.0,25.63,NNE,22,1.6,5.0,99,0.00,,,0.04,Rainwise IP-100,2013-09-18 11:41:00,
2013-09-18 04:46:00,40.7,40.0,25.64,NW,315,2.1,6.0,98,0.00,,,0.04,Rainwise IP-100,2013-09-18 11:46:00,
2013-09-18 04:51:00,40.6,40.0,25.63,NNW,337,2.3,5.0,98,0.00,,,0.04,Rainwise IP-100,2013-09-18 11:51:00,
2013-09-18 04:56:00,40.6,41.0,25.64,WNW,292,2.1,6.0,99,0.00,,,0.04,Rainwise IP-100,2013-09-18 11:56:00,
2013-09-18 05:01:00,40.6,41.0,25.64,NNW,337,1.4,6.0,99,0.00,,,0.04,Rainwise IP-100,2013-09-18 12:01:00,
2013-09-18 05:06:00,40.6,41.0,25.63,NNW,337,2.1,4.0,100,0.00,,,0.04,Rainwise IP-100,2013-09-18 12:06:00,
2013-09-18 05:11:00,40.4,40.0,25.64,NNE,22,1.9,6.0,100,0.00,,,0.04,Rainwise IP-100,2013-09-18 12:11:00,
2013-09-18 05:16:00,40.3,40.0,25.64,North,360,4.0,7.0,100,0.00,,,0.04,Rainwise IP-100,2013-09-18 12:16:00,
2013-09-18 05:21:00,40.3,40.0,25.64,NNE,22,2.1,4.0,100,0.00,,,0.04,Rainwise IP-100,2013-09-18 12:21:00,
2013-09-18 05:26:00,40.3,40.0,25.64,ENE,67,1.4,6.0,100,0.00,,,0.04,Rainwise IP-100,2013-09-18 12:26:00,
2013-09-18 05:31:00,40.2,40.0,25.64,North,360,3.0,4.0,100,0.00,,,0.04,Rainwise IP-100,2013-09-18 12:31:00,
2013-09-18 05:36:00,40.3,40.0,25.64,North,360,2.8,5.0,100,0.00,,,0.04,Rainwise IP-100,2013-09-18 12:36:00,
2013-09-18 05:41:00,40.3,40.0,25.64,NNE,22,4.2,5.0,100,0.00,,,0.04,Rainwise IP-100,2013-09-18 12:41:00,
2013-09-18 05:46:00,40.3,40.0,25.65,West,270,0.0,5.0,100,0.00,,,0.04,Rainwise IP-100,2013-09-18 12:46:00,
2013-09-18 05:51:00,40.3,40.0,25.64,North,360,1.6,4.0,100,0.00,,,0.04,Rainwise IP-100,2013-09-18 12:51:00,
2013-09-18 05:56:00,40.3,40.0,25.65,NW,315,3.5,4.0,100,0.00,,,0.04,Rainwise IP-100,2013-09-18 12:56:00,
2013-09-18 06:01:00,40.2,40.0,25.65,ESE,112,1.2,5.0,100,0.00,,,0.04,Rainwise IP-100,2013-09-18 13:01:00,
2013-09-18 06:06:00,40.2,40.0,25.65,ESE,112,1.2,3.0,100,0.00,,,0.04,Rainwise IP-100,2013-09-18 13:06:00,
2013-09-18 06:11:00,40.1,40.0,25.65,NNE,22,2.8,5.0,100,0.00,,,0.04,Rainwise IP-100,2013-09-18 13:11:00,
2013-09-18 06:16:00,40.2,40.0,25.65,NNE,22,1.2,5.0,100,0.00,,,0.04,Rainwise IP-100,2013-09-18 13:16:00,
2013-09-18 06:21:00,40.2,40.0,25.65,North,360,2.1,5.0,100,0.00,,,0.04,Rainwise IP-100,2013-09-18 13:21:00,
2013-09-18 06:26:00,40.2,40.0,25.65,South,180,0.0,6.0,100,0.00,,,0.04,Rainwise IP-100,2013-09-18 13:26:00,
2013-09-18 06:31:00,40.1,40.0,25.66,NNW,337,0.0,5.0,100,0.00,,,0.04,Rainwise IP-100,2013-09-18 13:31:00,
2013-09-18 06:36:00,40.0,40.0,25.66,North,360,1.4,5.0,100,0.00,,,0.04,Rainwise IP-100,2013-09-18 13:36:00,
2013-09-18 06:41:00,40.0,40.0,25.66,NNW,337,0.0,6.0,100,0.00,,,0.04,Rainwise IP-100,2013-09-18 13:41:00,
2013-09-18 06:46:00,40.0,40.0,25.66,NNW,337,2.8,4.0,100,0.00,,,0.04,Rainwise IP-100,2013-09-18 13:46:00,
2013-09-18 06:52:00,40.0,40.0,25.66,NNW,337,0.0,4.0,100,0.00,,,0.04,Rainwise IP-100,2013-09-18 13:52:00,
2013-09-18 06:57:00,39.9,40.0,25.67,North,360,0.0,3.0,100,0.00,,,0.04,Rainwise IP-100,2013-09-18 13:57:00,
2013-09-18 07:02:00,39.9,40.0,25.67,NNW,337,3.3,4.0,100,0.00,,,0.04,Rainwise IP-100,2013-09-18 14:02:00,
2013-09-18 07:07:00,39.9,40.0,25.67,NNW,337,1.9,4.0,100,0.00,,,0.04,Rainwise IP-100,2013-09-18 14:07:00,
2013-09-18 07:12:00,39.9,40.0,25.67,NNW,337,0.0,3.0,100,0.00,,,0.04,Rainwise IP-100,2013-09-18 14:12:00,
2013-09-18 07:17:00,39.9,40.0,25.67,SE,135,1.4,1.4,100,0.00,,,0.04,Rainwise IP-100,2013-09-18 14:17:00,
2013-09-18 07:22:00,39.8,40.0,25.67,NNE,22,0.0,2.0,100,0.00,,,0.04,Rainwise IP-100,2013-09-18 14:22:00,
2013-09-18 07:27:00,39.8,40.0,25.67,NNE,22,0.0,0.0,100,0.00,,,0.04,Rainwise IP-100,2013-09-18 14:27:00,
2013-09-18 07:32:00,39.7,40.0,25.67,ENE,67,0.0,1.0,100,0.00,,,0.04,Rainwise IP-100,2013-09-18 14:32:00,
2013-09-18 07:37:00,39.5,40.0,25.66,ENE,67,0.0,0.0,100,0.00,,,0.04,Rainwise IP-100,2013-09-18 14:37:00,
2013-09-18 07:42:00,39.4,39.0,25.67,ENE,67,0.0,0.0,100,0.00,,,0.04,Rainwise IP-100,2013-09-18 14:42:00,
2013-09-18 07:47:00,39.2,39.0,25.67,ENE,67,0.0,0.0,100,0.00,,,0.04,Rainwise IP-100,2013-09-18 14:47:00,
2013-09-18 07:52:00,39.1,39.0,25.66,ENE,67,0.0,0.0,100,0.00,,,0.04,Rainwise IP-100,2013-09-18 14:52:00,
2013-09-18 07:57:00,39.1,39.0,25.67,ENE,67,0.0,0.0,100,0.00,,,0.04,Rainwise IP-100,2013-09-18 14:57:00,
2013-09-18 08:02:00,39.1,39.0,25.68,ENE,67,0.0,0.0,100,0.00,,,0.04,Rainwise IP-100,2013-09-18 15:02:00,
2013-09-18 08:07:00,39.1,39.0,25.67,ENE,67,0.0,0.0,100,0.00,,,0.04,Rainwise IP-100,2013-09-18 15:07:00,
2013-09-18 08:12:00,39.1,39.0,25.67,ENE,67,0.0,0.0,100,0.00,,,0.04,Rainwise IP-100,2013-09-18 15:12:00,
2013-09-18 08:17:00,39.2,39.0,25.67,ENE,67,0.0,0.0,100,0.00,,,0.04,Rainwise IP-100,2013-09-18 15:17:00,
2013-09-18 08:22:00,39.2,39.0,25.67,ENE,67,0.0,0.0,100,0.00,,,0.04,Rainwise IP-100,2013-09-18 15:22:00,
2013-09-18 08:27:00,39.2,39.0,25.67,ENE,67,0.0,0.0,100,0.00,,,0.04,Rainwise IP-100,2013-09-18 15:27:00,
2013-09-18 08:32:00,39.2,39.0,25.68,ENE,67,0.0,0.0,100,0.00,,,0.04,Rainwise IP-100,2013-09-18 15:32:00,
2013-09-18 08:37:00,39.2,39.0,25.68,ENE,67,0.0,0.0,100,0.00,,,0.04,Rainwise IP-100,2013-09-18 15:37:00,
2013-09-18 08:42:00,39.2,39.0,25.68,ENE,67,0.0,1.0,100,0.00,,,0.04,Rainwise IP-100,2013-09-18 15:42:00,
2013-09-18 08:47:00,39.4,39.0,25.68,NNW,337,2.1,2.1,100,0.00,,,0.04,Rainwise IP-100,2013-09-18 15:47:00,
2013-09-18 08:52:00,39.5,40.0,25.68,NNW,337,3.5,5.0,100,0.00,,,0.04,Rainwise IP-100,2013-09-18 15:52:00,
2013-09-18 08:57:00,39.6,40.0,25.68,NNW,337,4.7,5.0,100,0.00,,,0.04,Rainwise IP-100,2013-09-18 15:57:00,
2013-09-18 09:01:00,39.8,40.0,25.68,NNW,337,3.3,5.0,100,0.00,,,0.04,Rainwise IP-100,2013-09-18 16:01:00,
2013-09-18 09:06:00,40.0,40.0,25.69,NNW,337,1.9,4.0,100,0.00,,,0.04,Rainwise IP-100,2013-09-18 16:06:00,
2013-09-18 09:11:00,40.0,40.0,25.69,NNW,337,4.2,4.2,100,0.00,,,0.04,Rainwise IP-100,2013-09-18 16:11:00,
2013-09-18 09:16:00,40.1,40.0,25.69,NNW,337,2.8,4.0,100,0.00,,,0.04,Rainwise IP-100,2013-09-18 16:16:00,
2013-09-18 09:21:00,40.4,40.0,25.69,NNW,337,3.7,6.0,100,0.00,,,0.04,Rainwise IP-100,2013-09-18 16:21:00,
2013-09-18 09:26:00,40.6,41.0,25.69,NNW,337,2.6,5.0,100,0.00,,,0.04,Rainwise IP-100,2013-09-18 16:26:00,
2013-09-18 09:31:00,40.8,41.0,25.69,North,360,2.6,4.0,100,0.00,,,0.04,Rainwise IP-100,2013-09-18 16:31:00,
2013-09-18 09:36:00,40.9,41.0,25.69,NNW,337,3.7,6.0,100,0.00,,,0.04,Rainwise IP-100,2013-09-18 16:36:00,
2013-09-18 09:41:00,41.0,41.0,25.70,NNE,22,3.7,4.0,100,0.00,,,0.04,Rainwise IP-100,2013-09-18 16:41:00,
2013-09-18 09:46:00,41.2,41.0,25.70,NNW,337,4.9,5.0,100,0.00,,,0.04,Rainwise IP-100,2013-09-18 16:46:00,
2013-09-18 09:51:00,41.3,41.0,25.70,NNE,22,3.3,6.0,100,0.00,,,0.04,Rainwise IP-100,2013-09-18 16:51:00,
2013-09-18 09:56:00,41.5,42.0,25.70,NNE,22,2.1,6.0,100,0.00,,,0.04,Rainwise IP-100,2013-09-18 16:56:00,
2013-09-18 10:01:00,41.7,42.0,25.70,NNW,337,5.6,5.6,100,0.00,,,0.04,Rainwise IP-100,2013-09-18 17:01:00,
2013-09-18 10:06:00,41.9,42.0,25.70,NNW,337,2.6,6.0,99,0.00,,,0.04,Rainwise IP-100,2013-09-18 17:06:00,
2013-09-18 10:11:00,42.4,42.0,25.70,NNW,337,4.9,5.0,99,0.00,,,0.04,Rainwise IP-100,2013-09-18 17:11:00,
2013-09-18 10:16:00,43.0,42.0,25.70,NNE,22,2.6,6.0,98,0.00,,,0.04,Rainwise IP-100,2013-09-18 17:16:00,
2013-09-18 10:21:00,43.4,42.0,25.70,NNW,337,3.3,6.0,97,0.00,,,0.04,Rainwise IP-100,2013-09-18 17:21:00,
2013-09-18 10:26:00,43.7,43.0,25.71,NNW,337,2.1,6.0,96,0.00,,,0.04,Rainwise IP-100,2013-09-18 17:26:00,
2013-09-18 10:31:00,43.8,43.0,25.71,NNW,337,1.4,5.0,96,0.00,,,0.04,Rainwise IP-100,2013-09-18 17:31:00,
2013-09-18 10:36:00,43.9,43.0,25.71,NNE,22,2.8,8.0,95,0.00,,,0.04,Rainwise IP-100,2013-09-18 17:36:00,
2013-09-18 10:41:00,44.0,43.0,25.71,North,360,3.7,7.0,95,0.00,,,0.04,Rainwise IP-100,2013-09-18 17:41:00,
2013-09-18 10:46:00,44.1,43.0,25.71,North,360,5.6,7.0,95,0.00,,,0.04,Rainwise IP-100,2013-09-18 17:46:00,
2013-09-18 10:51:00,44.2,43.0,25.71,NNE,22,3.7,9.0,95,0.00,,,0.04,Rainwise IP-100,2013-09-18 17:51:00,
2013-09-18 10:56:00,44.2,43.0,25.71,NNW,337,2.8,5.0,95,0.00,,,0.04,Rainwise IP-100,2013-09-18 17:56:00,
2013-09-18 11:01:00,44.2,43.0,25.71,NNW,337,4.4,7.0,95,0.00,,,0.04,Rainwise IP-100,2013-09-18 18:01:00,
2013-09-18 11:06:00,44.2,42.0,25.71,NNW,337,4.4,5.0,94,0.00,,,0.04,Rainwise IP-100,2013-09-18 18:06:00,
2013-09-18 11:11:00,44.3,42.0,25.72,NE,45,0.0,7.0,94,0.00,,,0.04,Rainwise IP-100,2013-09-18 18:11:00,
2013-09-18 11:16:00,44.5,43.0,25.71,NE,45,0.0,6.0,93,0.00,,,0.04,Rainwise IP-100,2013-09-18 18:16:00,
2013-09-18 11:21:00,44.7,43.0,25.72,NNW,337,3.7,7.0,92,0.00,,,0.04,Rainwise IP-100,2013-09-18 18:21:00,
2013-09-18 11:26:00,44.9,43.0,25.71,NNW,337,7.7,7.7,92,0.00,,,0.04,Rainwise IP-100,2013-09-18 18:26:00,
2013-09-18 11:32:00,45.1,43.0,25.72,NNE,22,5.6,7.0,92,0.00,,,0.04,Rainwise IP-100,2013-09-18 18:32:00,
2013-09-18 11:37:00,45.2,43.0,25.72,North,360,3.0,7.0,92,0.00,,,0.04,Rainwise IP-100,2013-09-18 18:37:00,
2013-09-18 11:42:00,45.3,43.0,25.72,North,360,4.4,8.0,92,0.00,,,0.04,Rainwise IP-100,2013-09-18 18:42:00,
2013-09-18 11:47:00,45.2,43.0,25.72,NNE,22,1.2,8.0,93,0.00,,,0.04,Rainwise IP-100,2013-09-18 18:47:00,
2013-09-18 11:52:00,45.2,43.0,25.72,NNE,22,4.4,8.0,94,0.00,,,0.04,Rainwise IP-100,2013-09-18 18:52:00,
2013-09-18 11:57:00,45.4,43.0,25.73,North,360,4.2,5.0,93,0.00,,,0.04,Rainwise IP-100,2013-09-18 18:57:00,
2013-09-18 12:02:00,45.6,43.0,25.73,NW,315,3.7,7.0,91,0.00,,,0.04,Rainwise IP-100,2013-09-18 19:02:00,
2013-09-18 12:07:00,45.7,43.0,25.73,NNW,337,4.0,10.0,91,0.00,,,0.04,Rainwise IP-100,2013-09-18 19:07:00,
2013-09-18 12:12:00,45.8,43.0,25.73,NNE,22,4.4,9.0,90,0.00,,,0.04,Rainwise IP-100,2013-09-18 19:12:00,
2013-09-18 12:17:00,45.7,43.0,25.74,NNW,337,1.4,8.0,90,0.00,,,0.04,Rainwise IP-100,2013-09-18 19:17:00,
2013-09-18 12:22:00,45.7,43.0,25.73,NNW,337,6.8,6.8,90,0.00,,,0.04,Rainwise IP-100,2013-09-18 19:22:00,
2013-09-18 12:27:00,45.9,43.0,25.73,NNW,337,4.4,7.0,91,0.00,,,0.04,Rainwise IP-100,2013-09-18 19:27:00,
2013-09-18 12:32:00,46.2,43.0,25.73,NNE,22,2.6,9.0,91,0.00,,,0.04,Rainwise IP-100,2013-09-18 19:32:00,
2013-09-18 12:37:00,46.2,43.0,25.73,NNW,337,3.7,7.0,89,0.00,,,0.04,Rainwise IP-100,2013-09-18 19:37:00,
2013-09-18 12:42:00,46.2,43.0,25.73,NW,315,5.4,8.0,89,0.00,,,0.04,Rainwise IP-100,2013-09-18 19:42:00,
2013-09-18 12:47:00,46.4,43.0,25.73,NNW,337,7.7,12.0,89,0.00,,,0.04,Rainwise IP-100,2013-09-18 19:47:00,
2013-09-18 12:52:00,46.7,43.0,25.74,North,360,5.4,11.0,88,0.00,,,0.04,Rainwise IP-100,2013-09-18 19:52:00,
2013-09-18 12:57:00,46.6,43.0,25.74,NNW,337,6.1,8.0,87,0.00,,,0.04,Rainwise IP-100,2013-09-18 19:57:00,
2013-09-18 13:02:00,46.4,42.0,25.73,NNE,22,3.5,7.0,88,0.00,,,0.04,Rainwise IP-100,2013-09-18 20:02:00,
2013-09-18 13:07:00,46.5,43.0,25.73,NNW,337,6.1,7.0,89,0.00,,,0.04,Rainwise IP-100,2013-09-18 20:07:00,
2013-09-18 13:12:00,46.7,43.0,25.73,NNW,337,8.4,13.0,89,0.00,,,0.04,Rainwise IP-100,2013-09-18 20:12:00,
2013-09-18 13:17:00,47.0,43.0,25.74,NNE,22,4.2,11.0,87,0.00,,,0.04,Rainwise IP-100,2013-09-18 20:17:00,
2013-09-18 13:22:00,47.3,42.0,25.74,NNW,337,6.3,11.0,85,0.00,,,0.04,Rainwise IP-100,2013-09-18 20:22:00,
2013-09-18 13:27:00,47.3,42.0,25.73,NW,315,4.9,8.0,84,0.00,,,0.04,Rainwise IP-100,2013-09-18 20:27:00,
2013-09-18 13:32:00,47.2,42.0,25.73,NW,315,6.1,8.0,84,0.00,,,0.04,Rainwise IP-100,2013-09-18 20:32:00,
2013-09-18 13:37:00,47.3,42.0,25.73,NNW,337,3.7,7.0,84,0.00,,,0.04,Rainwise IP-100,2013-09-18 20:37:00,
2013-09-18 13:42:00,47.5,43.0,25.74,NNW,337,6.8,11.0,85,0.00,,,0.04,Rainwise IP-100,2013-09-18 20:42:00,
2013-09-18 13:47:00,47.6,43.0,25.74,NNW,337,4.0,9.0,85,0.00,,,0.04,Rainwise IP-100,2013-09-18 20:47:00,
2013-09-18 13:52:00,47.4,43.0,25.74,NNW,337,4.9,11.0,84,0.00,,,0.04,Rainwise IP-100,2013-09-18 20:52:00,
2013-09-18 13:57:00,47.3,42.0,25.74,NNE,22,0.0,7.0,84,0.00,,,0.04,Rainwise IP-100,2013-09-18 20:57:00,
2013-09-18 14:02:00,47.3,42.0,25.74,NNW,337,2.3,6.0,84,0.00,,,0.04,Rainwise IP-100,2013-09-18 21:02:00,
2013-09-18 14:07:00,47.3,42.0,25.74,North,360,0.0,5.0,85,0.00,,,0.04,Rainwise IP-100,2013-09-18 21:07:00,
2013-09-18 14:12:00,47.6,43.0,25.74,NNW,337,5.1,8.0,85,0.00,,,0.04,Rainwise IP-100,2013-09-18 21:12:00,
2013-09-18 14:17:00,48.2,43.0,25.74,NNW,337,4.9,12.0,83,0.00,,,0.04,Rainwise IP-100,2013-09-18 21:17:00,
2013-09-18 14:22:00,48.3,43.0,25.74,NNE,22,3.5,9.0,83,0.00,,,0.04,Rainwise IP-100,2013-09-18 21:22:00,
2013-09-18 14:27:00,48.0,44.0,25.74,ENE,67,0.0,7.0,84,0.00,,,0.04,Rainwise IP-100,2013-09-18 21:27:00,
2013-09-18 14:32:00,47.7,42.0,25.75,NNW,337,2.8,6.0,83,0.00,,,0.04,Rainwise IP-100,2013-09-18 21:32:00,
2013-09-18 14:37:00,47.6,42.0,25.75,North,360,2.6,6.0,82,0.00,,,0.04,Rainwise IP-100,2013-09-18 21:37:00,
2013-09-18 14:43:00,47.7,42.0,25.75,NNE,22,1.9,7.0,81,0.00,,,0.04,Rainwise IP-100,2013-09-18 21:43:00,
2013-09-18 14:48:00,47.8,42.0,25.75,NW,315,4.7,7.0,81,0.00,,,0.04,Rainwise IP-100,2013-09-18 21:48:00,
2013-09-18 14:53:00,47.7,42.0,25.75,NNW,337,4.9,10.0,81,0.00,,,0.04,Rainwise IP-100,2013-09-18 21:53:00,
2013-09-18 14:58:00,47.5,42.0,25.75,NNW,337,0.0,5.0,81,0.00,,,0.04,Rainwise IP-100,2013-09-18 21:58:00,
2013-09-18 15:03:00,47.5,42.0,25.75,NNW,337,6.5,6.5,83,0.00,,,0.04,Rainwise IP-100,2013-09-18 22:03:00,
2013-09-18 15:08:00,47.6,42.0,25.75,NNE,22,4.9,7.0,83,0.00,,,0.04,Rainwise IP-100,2013-09-18 22:08:00,
2013-09-18 15:13:00,47.5,42.0,25.75,NNW,337,2.6,7.0,82,0.00,,,0.04,Rainwise IP-100,2013-09-18 22:13:00,
2013-09-18 15:18:00,47.6,42.0,25.75,NNW,337,3.3,7.0,82,0.00,,,0.04,Rainwise IP-100,2013-09-18 22:18:00,
2013-09-18 15:23:00,47.7,42.0,25.75,NNE,22,3.3,6.0,82,0.00,,,0.04,Rainwise IP-100,2013-09-18 22:23:00,
2013-09-18 15:28:00,47.8,42.0,25.75,NNW,337,2.3,6.0,82,0.00,,,0.04,Rainwise IP-100,2013-09-18 22:28:00,
2013-09-18 15:33:00,47.8,42.0,25.75,NNE,22,0.0,5.0,82,0.00,,,0.04,Rainwise IP-100,2013-09-18 22:33:00,
2013-09-18 15:38:00,47.6,42.0,25.75,NNW,337,2.1,3.0,83,0.00,,,0.04,Rainwise IP-100,2013-09-18 22:38:00,
2013-09-18 15:43:00,47.5,42.0,25.74,NNW,337,2.1,5.0,82,0.00,,,0.04,Rainwise IP-100,2013-09-18 22:43:00,
2013-09-18 15:48:00,47.6,42.0,25.75,NNW,337,4.2,6.0,82,0.00,,,0.04,Rainwise IP-100,2013-09-18 22:48:00,
2013-09-18 15:53:00,47.9,43.0,25.75,NNW,337,4.0,7.0,81,0.00,,,0.04,Rainwise IP-100,2013-09-18 22:53:00,
2013-09-18 15:58:00,48.1,42.0,25.75,NNW,337,4.4,8.0,80,0.00,,,0.04,Rainwise IP-100,2013-09-18 22:58:00,
2013-09-18 16:03:00,48.1,42.0,25.75,NNW,337,4.2,4.2,80,0.00,,,0.04,Rainwise IP-100,2013-09-18 23:03:00,
2013-09-18 16:08:00,48.1,42.0,25.75,NNW,337,2.8,6.0,80,0.00,,,0.04,Rainwise IP-100,2013-09-18 23:08:00,
2013-09-18 16:13:00,48.1,42.0,25.74,NNW,337,2.6,4.0,79,0.00,,,0.04,Rainwise IP-100,2013-09-18 23:13:00,
2013-09-18 16:18:00,47.9,43.0,25.75,ENE,67,0.0,4.0,81,0.00,,,0.04,Rainwise IP-100,2013-09-18 23:18:00,
2013-09-18 16:23:00,47.6,42.0,25.74,ENE,67,0.0,1.0,83,0.00,,,0.04,Rainwise IP-100,2013-09-18 23:23:00,
2013-09-18 16:28:00,47.4,43.0,25.74,ENE,67,0.0,2.0,84,0.00,,,0.04,Rainwise IP-100,2013-09-18 23:28:00,
2013-09-18 16:33:00,47.7,43.0,25.74,NE,45,0.0,3.0,85,0.00,,,0.04,Rainwise IP-100,2013-09-18 23:33:00,
2013-09-18 16:38:00,47.9,44.0,25.75,NNW,337,2.8,4.0,84,0.00,,,0.04,Rainwise IP-100,2013-09-18 23:38:00,
2013-09-18 16:43:00,47.9,43.0,25.74,NNW,337,1.4,5.0,82,0.00,,,0.04,Rainwise IP-100,2013-09-18 23:43:00,
2013-09-18 16:48:00,48.0,43.0,25.75,North,360,2.6,4.0,82,0.00,,,0.04,Rainwise IP-100,2013-09-18 23:48:00,
2013-09-18 16:53:00,48.0,43.0,25.75,NNE,22,0.0,4.0,82,0.00,,,0.04,Rainwise IP-100,2013-09-18 23:53:00,
2013-09-18 16:58:00,48.0,43.0,25.75,NNE,22,0.0,2.0,82,0.00,,,0.04,Rainwise IP-100,2013-09-18 23:58:00,
2013-09-18 17:03:00,48.0,43.0,25.75,SE,135,0.0,3.0,82,0.00,,,0.04,Rainwise IP-100,2013-09-19 00:03:00,
2013-09-18 17:08:00,47.7,42.0,25.76,ESE,112,0.0,2.0,82,0.00,,,0.04,Rainwise IP-100,2013-09-19 00:08:00,
2013-09-18 17:14:00,47.5,42.0,25.75,ESE,112,0.0,2.0,83,0.00,,,0.04,Rainwise IP-100,2013-09-19 00:14:00,
2013-09-18 17:19:00,47.6,42.0,25.75,NNE,22,1.4,3.0,83,0.00,,,0.04,Rainwise IP-100,2013-09-19 00:19:00,
2013-09-18 17:24:00,47.8,42.0,25.75,NNE,22,0.0,1.0,83,0.00,,,0.04,Rainwise IP-100,2013-09-19 00:24:00,
2013-09-18 17:29:00,47.7,42.0,25.75,ESE,112,1.9,2.0,83,0.00,,,0.04,Rainwise IP-100,2013-09-19 00:29:00,
2013-09-18 17:34:00,47.4,42.0,25.75,NE,45,0.0,2.0,82,0.00,,,0.04,Rainwise IP-100,2013-09-19 00:34:00,
2013-09-18 17:39:00,47.3,41.0,25.75,East,90,0.0,4.0,82,0.00,,,0.04,Rainwise IP-100,2013-09-19 00:39:00,
2013-09-18 17:44:00,47.0,41.0,25.75,NNE,22,1.2,3.0,81,0.00,,,0.04,Rainwise IP-100,2013-09-19 00:44:00,
2013-09-18 17:49:00,46.9,41.0,25.75,ESE,112,0.0,2.0,81,0.00,,,0.04,Rainwise IP-100,2013-09-19 00:49:00,
2013-09-18 17:54:00,47.0,41.0,25.75,ENE,67,0.0,2.0,82,0.00,,,0.04,Rainwise IP-100,2013-09-19 00:54:00,
2013-09-18 17:59:00,46.9,42.0,25.75,ESE,112,0.0,2.0,83,0.00,,,0.04,Rainwise IP-100,2013-09-19 00:59:00,
2013-09-18 18:04:00,46.8,42.0,25.75,ENE,67,0.0,2.0,84,0.00,,,0.04,Rainwise IP-100,2013-09-19 01:04:00,
2013-09-18 18:09:00,46.5,42.0,25.75,NNE,22,0.0,1.0,85,0.00,,,0.04,Rainwise IP-100,2013-09-19 01:09:00,
2013-09-18 18:14:00,46.4,42.0,25.76,East,90,0.0,2.0,86,0.00,,,0.04,Rainwise IP-100,2013-09-19 01:14:00,
2013-09-18 18:19:00,46.2,42.0,25.76,ESE,112,0.0,2.0,86,0.00,,,0.04,Rainwise IP-100,2013-09-19 01:19:00,
2013-09-18 18:24:00,46.0,42.0,25.75,ENE,67,0.0,3.0,88,0.00,,,0.04,Rainwise IP-100,2013-09-19 01:24:00,
2013-09-18 18:29:00,45.7,42.0,25.76,ENE,67,0.0,1.0,88,0.00,,,0.04,Rainwise IP-100,2013-09-19 01:29:00,
2013-09-18 18:34:00,45.4,42.0,25.75,ENE,67,0.0,0.0,89,0.00,,,0.04,Rainwise IP-100,2013-09-19 01:34:00,
2013-09-18 18:39:00,44.9,42.0,25.75,ENE,67,0.0,0.0,90,0.00,,,0.04,Rainwise IP-100,2013-09-19 01:39:00,
2013-09-18 18:44:00,44.3,42.0,25.75,ENE,67,0.0,0.0,92,0.00,,,0.04,Rainwise IP-100,2013-09-19 01:44:00,
2013-09-18 18:49:00,43.7,42.0,25.75,ENE,67,0.0,0.0,93,0.00,,,0.04,Rainwise IP-100,2013-09-19 01:49:00,
2013-09-18 18:54:00,43.3,41.0,25.75,ESE,112,1.6,2.0,94,0.00,,,0.04,Rainwise IP-100,2013-09-19 01:54:00,
2013-09-18 18:59:00,43.0,42.0,25.75,ESE,112,0.0,1.0,95,0.00,,,0.04,Rainwise IP-100,2013-09-19 01:59:00,
2013-09-18 19:04:00,42.7,42.0,25.75,ESE,112,1.9,2.0,95,0.00,,,0.04,Rainwise IP-100,2013-09-19 02:04:00,
2013-09-18 19:09:00,42.2,41.0,25.75,ESE,112,1.2,2.0,96,0.00,,,0.04,Rainwise IP-100,2013-09-19 02:09:00,
2013-09-18 19:14:00,41.9,41.0,25.75,ESE,112,0.0,2.0,96,0.00,,,0.04,Rainwise IP-100,2013-09-19 02:14:00,
2013-09-18 19:19:00,41.7,41.0,25.74,ESE,112,0.0,1.0,97,0.00,,,0.04,Rainwise IP-100,2013-09-19 02:19:00,
2013-09-18 19:24:00,41.4,40.0,25.75,ESE,112,1.9,1.9,97,0.00,,,0.04,Rainwise IP-100,2013-09-19 02:24:00,
2013-09-18 19:29:00,41.1,40.0,25.75,ESE,112,0.0,2.0,97,0.00,,,0.04,Rainwise IP-100,2013-09-19 02:29:00,
2013-09-18 19:34:00,40.9,40.0,25.75,ESE,112,0.0,1.0,97,0.00,,,0.04,Rainwise IP-100,2013-09-19 02:34:00,
2013-09-18 19:39:00,40.7,40.0,25.75,ESE,112,0.0,1.0,97,0.00,,,0.04,Rainwise IP-100,2013-09-19 02:39:00,
2013-09-18 19:44:00,40.4,39.0,25.75,ESE,112,0.0,2.0,97,0.00,,,0.04,Rainwise IP-100,2013-09-19 02:44:00,
2013-09-18 19:49:00,40.2,40.0,25.75,ESE,112,0.0,1.0,98,0.00,,,0.04,Rainwise IP-100,2013-09-19 02:49:00,
2013-09-18 19:54:00,40.0,40.0,25.75,ESE,112,1.2,1.2,98,0.00,,,0.04,Rainwise IP-100,2013-09-19 02:54:00,
2013-09-18 19:59:00,39.8,40.0,25.75,ESE,112,0.0,2.0,98,0.00,,,0.04,Rainwise IP-100,2013-09-19 02:59:00,
2013-09-18 20:04:00,39.7,40.0,25.75,ESE,112,1.2,1.2,98,0.00,,,0.04,Rainwise IP-100,2013-09-19 03:04:00,
2013-09-18 20:09:00,39.6,40.0,25.75,ESE,112,1.2,1.2,99,0.00,,,0.04,Rainwise IP-100,2013-09-19 03:09:00,
2013-09-18 20:14:00,39.5,40.0,25.75,ESE,112,0.0,1.0,99,0.00,,,0.04,Rainwise IP-100,2013-09-19 03:14:00,
2013-09-18 20:19:00,39.4,39.0,25.75,ESE,112,0.0,1.0,99,0.00,,,0.04,Rainwise IP-100,2013-09-19 03:19:00,
2013-09-18 20:24:00,39.3,39.0,25.75,ESE,112,0.0,1.0,99,0.00,,,0.04,Rainwise IP-100,2013-09-19 03:24:00,
2013-09-18 20:29:00,39.2,39.0,25.75,ESE,112,0.0,0.0,99,0.00,,,0.04,Rainwise IP-100,2013-09-19 03:29:00,
2013-09-18 20:34:00,39.1,39.0,25.75,ESE,112,0.0,1.0,99,0.00,,,0.04,Rainwise IP-100,2013-09-19 03:34:00,
2013-09-18 20:39:00,39.0,39.0,25.76,ESE,112,0.0,2.0,99,0.00,,,0.04,Rainwise IP-100,2013-09-19 03:39:00,
2013-09-18 20:44:00,39.0,39.0,25.75,ESE,112,0.0,2.0,99,0.00,,,0.04,Rainwise IP-100,2013-09-19 03:44:00,
2013-09-18 20:49:00,38.9,39.0,25.76,ESE,112,1.9,1.9,99,0.00,,,0.04,Rainwise IP-100,2013-09-19 03:49:00,
2013-09-18 20:54:00,38.8,39.0,25.76,ESE,112,1.4,2.0,99,0.00,,,0.04,Rainwise IP-100,2013-09-19 03:54:00,
2013-09-18 20:59:00,38.6,39.0,25.76,ESE,112,0.0,3.0,99,0.00,,,0.04,Rainwise IP-100,2013-09-19 03:59:00,
2013-09-18 21:01:00,38.6,39.0,25.76,ESE,112,0.0,1.0,99,0.00,,,0.04,Rainwise IP-100,2013-09-19 04:01:00,
2013-09-18 21:06:00,38.5,39.0,25.75,ESE,112,0.0,2.0,99,0.00,,,0.04,Rainwise IP-100,2013-09-19 04:06:00,
2013-09-18 21:08:00,38.5,39.0,25.75,ESE,112,0.0,2.0,99,0.00,,,0.04,Rainwise IP-100,2013-09-19 04:08:00,
2013-09-18 21:13:00,38.4,38.0,25.76,ESE,112,0.0,1.0,100,0.00,,,0.04,Rainwise IP-100,2013-09-19 04:13:00,
2013-09-18 21:18:00,38.3,38.0,25.75,ESE,112,1.2,1.2,100,0.00,,,0.04,Rainwise IP-100,2013-09-19 04:18:00,
2013-09-18 21:23:00,38.3,38.0,25.75,ESE,112,1.9,1.9,100,0.00,,,0.04,Rainwise IP-100,2013-09-19 04:23:00,
2013-09-18 21:28:00,38.3,38.0,25.75,ESE,112,0.0,1.0,100,0.00,,,0.04,Rainwise IP-100,2013-09-19 04:28:00,
2013-09-18 21:33:00,38.3,38.0,25.75,ESE,112,0.0,1.0,100,0.00,,,0.04,Rainwise IP-100,2013-09-19 04:33:00,
2013-09-18 21:38:00,38.3,38.0,25.75,ESE,112,1.4,1.4,100,0.00,,,0.04,Rainwise IP-100,2013-09-19 04:38:00,
2013-09-18 21:43:00,38.3,38.0,25.75,ESE,112,0.0,2.0,100,0.00,,,0.04,Rainwise IP-100,2013-09-19 04:43:00,
2013-09-18 21:48:00,38.3,38.0,25.75,ESE,112,0.0,2.0,100,0.00,,,0.04,Rainwise IP-100,2013-09-19 04:48:00,
2013-09-18 21:53:00,38.2,38.0,25.74,ESE,112,1.2,1.2,100,0.00,,,0.04,Rainwise IP-100,2013-09-19 04:53:00,
2013-09-18 21:58:00,38.1,38.0,25.75,ESE,112,0.0,2.0,100,0.00,,,0.04,Rainwise IP-100,2013-09-19 04:58:00,
2013-09-18 22:03:00,38.1,38.0,25.74,ESE,112,0.0,2.0,100,0.00,,,0.04,Rainwise IP-100,2013-09-19 05:03:00,
2013-09-18 22:08:00,38.0,38.0,25.74,ESE,112,2.6,2.6,100,0.00,,,0.04,Rainwise IP-100,2013-09-19 05:08:00,
2013-09-18 22:13:00,37.9,38.0,25.74,ESE,112,1.2,2.0,100,0.00,,,0.04,Rainwise IP-100,2013-09-19 05:13:00,
2013-09-18 22:18:00,37.8,38.0,25.74,ESE,112,1.2,2.0,100,0.00,,,0.04,Rainwise IP-100,2013-09-19 05:18:00,
2013-09-18 22:23:00,37.7,38.0,25.74,ESE,112,0.0,2.0,100,0.00,,,0.04,Rainwise IP-100,2013-09-19 05:23:00,
2013-09-18 22:28:00,37.6,38.0,25.74,East,90,1.4,1.4,100,0.00,,,0.04,Rainwise IP-100,2013-09-19 05:28:00,
2013-09-18 22:33:00,37.6,38.0,25.74,ESE,112,1.9,1.9,100,0.00,,,0.04,Rainwise IP-100,2013-09-19 05:33:00,
2013-09-18 22:38:00,37.5,38.0,25.74,ESE,112,0.0,2.0,100,0.00,,,0.04,Rainwise IP-100,2013-09-19 05:38:00,
2013-09-18 22:43:00,37.5,38.0,25.74,SE,135,0.0,2.0,100,0.00,,,0.04,Rainwise IP-100,2013-09-19 05:43:00,
2013-09-18 22:48:00,37.4,37.0,25.74,SE,135,0.0,2.0,100,0.00,,,0.04,Rainwise IP-100,2013-09-19 05:48:00,
2013-09-18 22:53:00,37.3,37.0,25.74,SE,135,1.6,2.0,100,0.00,,,0.04,Rainwise IP-100,2013-09-19 05:53:00,
2013-09-18 22:58:00,37.2,37.0,25.73,ESE,112,1.2,2.0,100,0.00,,,0.04,Rainwise IP-100,2013-09-19 05:58:00,
2013-09-18 23:03:00,37.0,37.0,25.73,ESE,112,0.0,1.0,100,0.00,,,0.04,Rainwise IP-100,2013-09-19 06:03:00,
2013-09-18 23:08:00,36.9,37.0,25.73,ESE,112,0.0,1.0,100,0.00,,,0.04,Rainwise IP-100,2013-09-19 06:08:00,
2013-09-18 23:13:00,36.9,37.0,25.73,SE,135,1.6,4.0,100,0.00,,,0.04,Rainwise IP-100,2013-09-19 06:13:00,
2013-09-18 23:18:00,36.9,37.0,25.73,SE,135,2.8,2.8,100,0.00,,,0.04,Rainwise IP-100,2013-09-19 06:18:00,
2013-09-18 23:23:00,36.8,37.0,25.73,SE,135,0.0,2.0,100,0.00,,,0.04,Rainwise IP-100,2013-09-19 06:23:00,
2013-09-18 23:28:00,36.8,37.0,25.73,ESE,112,2.3,2.3,100,0.00,,,0.04,Rainwise IP-100,2013-09-19 06:28:00,
2013-09-18 23:33:00,36.8,37.0,25.73,ESE,112,0.0,2.0,100,0.00,,,0.04,Rainwise IP-100,2013-09-19 06:33:00,
2013-09-18 23:38:00,36.6,37.0,25.73,ESE,112,1.4,1.4,100,0.00,,,0.04,Rainwise IP-100,2013-09-19 06:38:00,
2013-09-18 23:43:00,36.6,37.0,25.73,ESE,112,0.0,1.0,100,0.00,,,0.04,Rainwise IP-100,2013-09-19 06:43:00,
2013-09-18 23:48:00,36.6,37.0,25.72,ESE,112,0.0,2.0,100,0.00,,,0.04,Rainwise IP-100,2013-09-19 06:48:00,
2013-09-18 23:53:00,36.7,37.0,25.72,ESE,112,0.0,0.0,100,0.00,,,0.04,Rainwise IP-100,2013-09-19 06:53:00,
2013-09-18 23:58:00,36.6,37.0,25.73,ESE,112,0.0,0.0,100,0.00,,,0.04,Rainwise IP-100,2013-09-19 06:58:00,